Kuala Lumpur International Airport Kuala Lumpur MY
ICAO: WMKK
IATA: KUL
Category: Large
Scheduled Services: Yes

Elevation: 69 ft
TransAlt. 11000 ft.

Airport Communications:
LUMPUR APP:119.45
LUMPUR ATIS:126.45
LUMPUR CLNC DEL:126
LUMPUR GND:121.65
LUMPUR GND:122.275
LUMPUR TWR 14R/32L:118.5
LUMPUR TWR 14L/32R:118.8

WMKK Zoom In..

If you have problems with the map follow the link
https://www.worldairports.se/pages/airport.php?
ICAO=WMKK

Runways:

(A) RW 14L length 13186 ft width 197 ft
ILS 108.50 / hdg 146

(B) RW 14R length 13123 ft width 197 ft
ILS 110.70 / hdg 146

(C) RW 32L length 13123 ft width 197 ft
ILS 111.90 / hdg 326

(D) RW 32R length 13186 ft width 197 ft
ILS 109.10 / hdg 326

Location; WMKK
Day. 18 / Time. 01.00 Zulu
* QNH: 1011
* Temperature: 27° c. 80.6°f.
* Wind from: 060° Speed 04 kn.
Dewpoint: 23° c.
Visibility: 10 km or more.
Clouds: Few 1700 ft.
No significant changes expected in the near future.

WMKK 180100Z 06004KT 360V110 9999 FEW017CB 27/23 Q1011 NOSIG


Wind From 060°
Speed 04 kn.

 
 
jpsmedia worldairports.se 2020   terms of use